Location: *
(44.1392°N, 4.8079°E)
Time: 20:58:59
(UTC+00:00)

deb Agena D - Pass Details

Date: 04 February 2022
Orbit: 936 x 1065 km, 100.4° (Epoch: 16 May)

Event Time Altitude Azimuth Distance (km) Brightness Sun altitude
Exits shadow 20:05:25 17° 5° (N) 2,387 ? -34.4°
Drops below altitude 10° 20:06:53 10° 358° (N) 2,869 ? -34.6°
Sets 20:09:37 0° 351° (N) 3,840 ? -35.1°
